Flugplatz Burg Feuerstein
 
.... wo jeder bestens aufgehoben ist! 

 

DSC04520

 


Täglich sind wir von 08.30 bis 12.30 Uhr und von 13.00 bis 16.45 Uhr unter 09194 - 79 75 75 

oder 

rund um die Uhr per Diese E-Mail-Adresse ist vor Spambots geschützt! Zur Anzeige muss JavaScript eingeschaltet sein! zu erreichen!

 

Flugbetrieb an jedem fliegbaren Tag von 9 Uhr bis 18 Uhr - nach Absprache auch flexibel darüber hinaus ! 

 


 
 

Wir bieten professionelle und trotzdem sehr günstige Ausbildung in 4 Sparten an:

Motorflug Motorsegler Segelflug Ultraleicht

Bei unseren Gebühren gibt keine „versteckten Kosten“ wie

  • Baustunden oder finanzielle Ausgleiche dafür
  • Verpflichtung zu Diensten oder finanzielle Ausgleiche dafür
  • Umschulungs- oder Typengebühren

Ebenso gibt es bei uns keinerlei zeitlicher Verpflichtungen zur Teilnahme am Flugbetrieb!

Kümmern Sie sich nur um Ihre fliegerischen Ambitionen – wir unterstützen Sie dabei professionell, individuell, zielorientiert und maximal flexibel!

Feuerstein News Ticker

Webcam Blick N

webcam 2

Webcam Blick NO

webcam 1

METAR EDDN

[Quelle: ADDS]
METAR
EDDN 212250Z 29008KT 9000 -RA BKN006 12/12 Q1013 =
EDDN 211700Z 2118/2218 30010KT 8000 BKN015 TEMPO 2118/2123 4000 RA BKN007 TEMPO 2123/2209 DZRA BKN007 PROB30 TEMPO 2209/2218 BKN012
TAF
EDDN 211700Z 2118/2218 30010KT 8000 BKN015 TEMPO 2118/2123 4000 RA BKN007 TEMPO 2123/2209 DZRA BKN007 PROB30 TEMPO 2209/2218 BKN012 =
SR / SS: 03:21 / 19:03 UTC (EDQE 2019-05-22)

Wetter EDQE


Das Wetter heute
Das Wetter morgen